Find Starlink 30166

NORAD ID: 57602 Int'l Des: 2023-119 Owner: SPXS Country: US Constellation: starlink operational
LEOCIRCULAR

Live-Position

3D-Globus wird geladen...

Über Starlink 30166

Beschreibung wird geladen...

Nächste Überflüge

Passes for default location (London). Set your location on the main map for personalized predictions.

Höhenverlauf

Loading altitude history...

Zweizeiliger Elementsatz

1 57602U 23119A 26125.28043637 .00001639 00000-0 69072-4 0 9992
2 57602 43.0020 121.7787 0001096 270.3347 89.7379 15.27586274151687
Epoch: 5. Mai 2026 • Age: 18 hours

Aktueller Status

Höhe 485.6 km
Geschwindigkeit 7.63 km/s
Subsatellitenpunkt 37.34°N, 11.68°E
Startdatum 11. Aug. 2023
Alter 2.7 years
Typ internet

Technische Details

Klassifizierung Payload
Masse 730.00 kg
Trockenmasse 700.00 kg
Gesamtmasse 730.00 kg
Länge 0.30 m
Durchmesser 4.10 m
Spannweite 29.00 m
Form Box + pan
Hersteller SPXS
Bus-Typ Starlink V2M
Phasenstatus In Orbit
Besitzer/Staat SPXS/US

Most Searched